| time (UTC) | temp F | wind direction | speed MPH | gust MPH | rain 1hr in | rain 24hr in | rain mn in | humidity % | barometer mb |
| 20260507001100 | 62 | 6 | 5.0 | 12.0 | 0.00 | 0.03 | 0.03 | 74 | 1014.2 |
| 20260507000600 | 62 | 29 | 6.0 | 12.0 | 0.00 | 0.03 | 0.03 | 74 | 1014.1 |
| 20260507000100 | 62 | 23 | 6.0 | 12.0 | 0.00 | 0.03 | 0.03 | 73 | 1014.0 |
| 20260506235559 | 63 | 44 | 8.0 | 13.0 | 0.00 | 0.03 | 0.03 | 73 | 1013.9 |
| 20260506235100 | 63 | 23 | 7.0 | 14.0 | 0.00 | 0.03 | 0.03 | 73 | 1013.9 |
| 20260506234603 | 63 | 42 | 8.0 | 14.0 | 0.00 | 0.03 | 0.03 | 73 | 1013.9 |
| 20260506234102 | 63 | 18 | 6.0 | 14.0 | 0.00 | 0.03 | 0.03 | 73 | 1013.8 |
| 20260506233604 | 63 | 57 | 6.0 | 14.0 | 0.00 | 0.03 | 0.03 | 73 | 1013.8 |
| 20260506233124 | 63 | 39 | 7.0 | 14.0 | 0.00 | 0.03 | 0.03 | 73 | 1013.8 |
| 20260506232600 | 64 | 25 | 6.0 | 13.0 | 0.00 | 0.03 | 0.03 | 73 | 1013.8 |
| 20260506232101 | 64 | 45 | 9.0 | 15.0 | 0.00 | 0.03 | 0.03 | 72 | 1013.7 |
| 20260506231558 | 64 | 29 | 7.0 | 15.0 | 0.00 | 0.03 | 0.03 | 72 | 1013.7 |
| 20260506231103 | 64 | 347 | 5.0 | 14.0 | 0.00 | 0.03 | 0.03 | 73 | 1013.7 |
| 20260506230600 | 64 | 29 | 8.0 | 14.0 | 0.00 | 0.03 | 0.03 | 72 | 1013.6 |
| 20260506230100 | 64 | 335 | 8.0 | 14.0 | 0.00 | 0.03 | 0.03 | 72 | 1013.6 |
| 20260506225601 | 64 | 41 | 7.0 | 14.0 | 0.00 | 0.03 | 0.03 | 72 | 1013.4 |
| 20260506225100 | 65 | 36 | 5.0 | 12.0 | 0.00 | 0.03 | 0.03 | 72 | 1013.4 |
| 20260506224559 | 64 | 51 | 7.0 | 12.0 | 0.00 | 0.03 | 0.03 | 71 | 1013.4 |
| 20260506224100 | 65 | 40 | 5.0 | 12.0 | 0.00 | 0.03 | 0.03 | 71 | 1013.3 |
| 20260506223603 | 65 | 349 | 5.0 | 12.0 | 0.00 | 0.03 | 0.03 | 72 | 1013.3 |
| 20260506223103 | 65 | 19 | 6.0 | 12.0 | 0.00 | 0.03 | 0.03 | 71 | 1013.1 |
| 20260506222601 | 65 | 356 | 6.0 | 12.0 | 0.00 | 0.03 | 0.03 | 72 | 1013.1 |
| 20260506222059 | 65 | 326 | 6.0 | 11.0 | 0.00 | 0.03 | 0.03 | 70 | 1013.1 |
| 20260506221600 | 65 | 40 | 5.0 | 11.0 | 0.00 | 0.03 | 0.03 | 69 | 1013.3 |
| 20260506221059 | 65 | 329 | 5.0 | 13.0 | 0.00 | 0.03 | 0.03 | 72 | 1013.4 |
| 20260506220601 | 65 | 9 | 8.0 | 13.0 | 0.00 | 0.03 | 0.03 | 69 | 1013.4 |
| 20260506220100 | 65 | 333 | 6.0 | 13.0 | 0.00 | 0.03 | 0.03 | 72 | 1013.3 |
| 20260506215600 | 65 | 27 | 7.0 | 13.0 | 0.00 | 0.03 | 0.03 | 70 | 1013.2 |
| 20260506215100 | 65 | 55 | 6.0 | 13.0 | 0.00 | 0.03 | 0.03 | 70 | 1013.1 |
| 20260506214558 | 65 | 325 | 6.0 | 13.0 | 0.00 | 0.03 | 0.03 | 72 | 1013.1 |
| 20260506214101 | 64 | 285 | 9.0 | 13.0 | 0.00 | 0.03 | 0.03 | 70 | 1013.1 |
| 20260506213600 | 64 | 327 | 8.0 | 15.0 | 0.00 | 0.03 | 0.03 | 71 | 1013.2 |
| 20260506213124 | 64 | 53 | 8.0 | 15.0 | 0.00 | 0.03 | 0.03 | 71 | 1013.4 |
| 20260506212600 | 64 | 52 | 6.0 | 11.0 | 0.00 | 0.03 | 0.03 | 71 | 1013.5 |
| 20260506212102 | 64 | 358 | 7.0 | 11.0 | 0.00 | 0.03 | 0.03 | 72 | 1013.6 |
| 20260506211558 | 63 | 23 | 5.0 | 11.0 | 0.00 | 0.03 | 0.03 | 74 | 1013.8 |
| 20260506211100 | 63 | 51 | 4.0 | 11.0 | 0.00 | 0.03 | 0.03 | 74 | 1013.9 |
| 20260506210600 | 63 | 335 | 7.0 | 11.0 | 0.00 | 0.03 | 0.03 | 73 | 1013.5 |
| 20260506205600 | 63 | 346 | 5.0 | 11.0 | 0.00 | 0.03 | 0.03 | 73 | 1013.4 |
| 20260506205100 | 63 | 354 | 6.0 | 11.0 | 0.00 | 0.03 | 0.03 | 74 | 1013.5 |
| 20260506204559 | 63 | 39 | 5.0 | 10.0 | 0.00 | 0.03 | 0.03 | 73 | 1013.6 |
| 20260506204100 | 62 | 4 | 5.0 | 10.0 | 0.00 | 0.03 | 0.03 | 73 | 1013.7 |
| 20260506203605 | 62 | 41 | 6.0 | 10.0 | 0.00 | 0.03 | 0.03 | 72 | 1013.7 |
| 20260506203059 | 63 | 10 | 5.0 | 10.0 | 0.00 | 0.03 | 0.03 | 71 | 1013.7 |
| 20260506202601 | 63 | 339 | 5.0 | 10.0 | 0.00 | 0.03 | 0.03 | 72 | 1013.7 |
| 20260506202100 | 63 | 346 | 5.0 | 8.0 | 0.00 | 0.03 | 0.03 | 73 | 1013.9 |
| 20260506201600 | 62 | 124 | 5.0 | 8.0 | 0.00 | 0.03 | 0.03 | 74 | 1014.1 |
| 20260506201100 | 63 | 71 | 4.0 | 7.0 | 0.00 | 0.03 | 0.03 | 72 | 1014.3 |
| 20260506200600 | 63 | 231 | 1.0 | 7.0 | 0.00 | 0.03 | 0.03 | 72 | 1014.3 |
| 20260506200101 | 62 | 187 | 3.0 | 7.0 | 0.00 | 0.03 | 0.03 | 73 | 1014.4 |
| 20260506195600 | 63 | 17 | 4.0 | 7.0 | 0.00 | 0.03 | 0.03 | 72 | 1014.5 |
| 20260506195100 | 63 | 20 | 1.0 | 4.0 | 0.00 | 0.03 | 0.03 | 73 | 1014.5 |
| 20260506194635 | 62 | 154 | 1.0 | 8.0 | 0.00 | 0.03 | 0.03 | 73 | 1014.7 |
| 20260506194103 | 61 | 0 | 2.0 | 8.0 | 0.00 | 0.03 | 0.03 | 74 | 1014.7 |
| 20260506193600 | 61 | 33 | 2.0 | 7.0 | 0.00 | 0.03 | 0.03 | 72 | 1014.7 |
| 20260506193106 | 61 | 5 | 4.0 | 6.0 | 0.00 | 0.03 | 0.03 | 73 | 1014.7 |
| 20260506192600 | 61 | 92 | 1.0 | 6.0 | 0.00 | 0.03 | 0.03 | 75 | 1014.8 |
| 20260506192101 | 60 | 240 | 1.0 | 7.0 | 0.00 | 0.03 | 0.03 | 76 | 1014.8 |
| 20260506191607 | 59 | 14 | 3.0 | 8.0 | 0.00 | 0.03 | 0.03 | 75 | 1014.9 |
| 20260506191100 | 59 | 314 | 4.0 | 8.0 | 0.00 | 0.03 | 0.03 | 76 | 1014.7 |
| 20260506190603 | 59 | 67 | 4.0 | 11.0 | 0.00 | 0.03 | 0.03 | 76 | 1014.9 |
| 20260506190108 | 58 | 40 | 5.0 | 16.0 | 0.00 | 0.03 | 0.03 | 76 | 1014.6 |
| 20260506185600 | 59 | 20 | 9.0 | 16.0 | 0.00 | 0.03 | 0.03 | 76 | 1014.5 |
| 20260506185100 | 59 | 7 | 8.0 | 16.0 | 0.00 | 0.03 | 0.03 | 77 | 1014.0 |
| 20260506184605 | 59 | 359 | 8.0 | 17.0 | 0.00 | 0.03 | 0.03 | 77 | 1014.1 |
| 20260506184101 | 58 | 336 | 9.0 | 18.0 | 0.00 | 0.03 | 0.03 | 78 | 1014.2 |
| 20260506183601 | 58 | 25 | 12.0 | 18.0 | 0.00 | 0.03 | 0.03 | 76 | 1013.8 |
| 20260506183058 | 58 | 306 | 8.0 | 15.0 | 0.00 | 0.03 | 0.03 | 78 | 1013.9 |
| 20260506182600 | 58 | 4 | 6.0 | 16.0 | 0.00 | 0.03 | 0.03 | 80 | 1014.0 |
| 20260506182100 | 58 | 327 | 8.0 | 16.0 | 0.00 | 0.03 | 0.03 | 79 | 1013.9 |
| 20260506181602 | 58 | 354 | 8.0 | 16.0 | 0.00 | 0.03 | 0.03 | 78 | 1014.1 |
| 20260506181100 | 57 | 335 | 9.0 | 14.0 | 0.00 | 0.03 | 0.03 | 80 | 1014.3 |
| 20260506180601 | 57 | 329 | 7.0 | 13.0 | 0.00 | 0.03 | 0.03 | 81 | 1014.2 |
| 20260506180107 | 56 | 11 | 9.0 | 13.0 | 0.00 | 0.03 | 0.03 | 80 | 1014.2 |
| 20260506175600 | 56 | 8 | 6.0 | 15.0 | 0.00 | 0.03 | 0.03 | 82 | 1014.3 |
| 20260506175103 | 55 | 18 | 8.0 | 16.0 | 0.00 | 0.03 | 0.03 | 80 | 1014.2 |
| 20260506174602 | 55 | 18 | 10.0 | 16.0 | 0.00 | 0.03 | 0.03 | 80 | 1014.3 |
| 20260506174102 | 55 | 342 | 7.0 | 12.0 | 0.00 | 0.03 | 0.03 | 81 | 1014.4 |
| 20260506173601 | 55 | 13 | 6.0 | 14.0 | 0.00 | 0.03 | 0.03 | 83 | 1014.1 |
| 20260506173107 | 55 | 329 | 8.0 | 14.0 | 0.00 | 0.03 | 0.03 | 82 | 1014.0 |
| 20260506172559 | 54 | 328 | 8.0 | 14.0 | 0.00 | 0.03 | 0.03 | 81 | 1014.2 |
| 20260506172100 | 55 | 330 | 8.0 | 14.0 | 0.00 | 0.03 | 0.03 | 83 | 1014.5 |
| 20260506171604 | 54 | 14 | 5.0 | 14.0 | 0.00 | 0.03 | 0.03 | 83 | 1014.5 |
| 20260506171101 | 54 | 23 | 9.0 | 14.0 | 0.00 | 0.03 | 0.03 | 83 | 1014.6 |
| 20260506170601 | 54 | 355 | 7.0 | 12.0 | 0.00 | 0.03 | 0.03 | 82 | 1014.8 |
| 20260506170113 | 54 | 27 | 7.0 | 12.0 | 0.00 | 0.03 | 0.03 | 82 | 1014.8 |
| 20260506165603 | 54 | 15 | 7.0 | 11.0 | 0.00 | 0.03 | 0.03 | 83 | 1015.0 |
| 20260506165101 | 54 | 1 | 6.0 | 11.0 | 0.00 | 0.03 | 0.03 | 83 | 1014.9 |
| 20260506164615 | 54 | 1 | 7.0 | 11.0 | 0.00 | 0.03 | 0.03 | 83 | 1015.0 |
| 20260506164101 | 54 | 62 | 4.0 | 11.0 | 0.00 | 0.03 | 0.03 | 84 | 1015.0 |
| 20260506163602 | 53 | 33 | 5.0 | 15.0 | 0.01 | 0.03 | 0.03 | 85 | 1014.9 |
| 20260506163119 | 53 | 44 | 6.0 | 18.0 | 0.01 | 0.03 | 0.03 | 85 | 1014.8 |
| 20260506162600 | 53 | 332 | 8.0 | 18.0 | 0.01 | 0.03 | 0.03 | 85 | 1014.4 |
| 20260506162100 | 53 | 22 | 9.0 | 15.0 | 0.01 | 0.03 | 0.03 | 85 | 1014.3 |
| 20260506161616 | 53 | 333 | 8.0 | 15.0 | 0.01 | 0.03 | 0.03 | 86 | 1014.4 |
| 20260506161100 | 53 | 309 | 9.0 | 15.0 | 0.02 | 0.03 | 0.03 | 86 | 1014.6 |
| 20260506160603 | 53 | 16 | 5.0 | 10.0 | 0.03 | 0.03 | 0.03 | 86 | 1014.9 |
| 20260506160100 | 53 | 318 | 6.0 | 10.0 | 0.03 | 0.03 | 0.03 | 86 | 1015.0 |
| 20260506155601 | 53 | 337 | 6.0 | 13.0 | 0.03 | 0.03 | 0.03 | 86 | 1015.0 |
| 20260506155100 | 53 | 345 | 7.0 | 18.0 | 0.03 | 0.03 | 0.03 | 87 | 1014.5 |
| 20260506154628 | 53 | 325 | 10.0 | 18.0 | 0.03 | 0.03 | 0.03 | 88 | 1014.0 |
| 20260506154104 | 53 | 330 | 9.0 | 13.0 | 0.03 | 0.03 | 0.03 | 88 | 1013.7 |
| 20260506153601 | 53 | 325 | 7.0 | 10.0 | 0.02 | 0.02 | 0.02 | 88 | 1014.4 |
| 20260506153115 | 52 | 11 | 3.0 | 5.0 | 0.02 | 0.02 | 0.02 | 88 | 1015.3 |
| 20260506152601 | 53 | 4 | 3.0 | 7.0 | 0.02 | 0.02 | 0.02 | 88 | 1015.7 |
| 20260506152100 | 52 | 271 | 4.0 | 7.0 | 0.02 | 0.02 | 0.02 | 87 | 1016.2 |
| 20260506151602 | 53 | 289 | 4.0 | 7.0 | 0.02 | 0.02 | 0.02 | 87 | 1016.3 |
| 20260506151100 | 53 | 315 | 3.0 | 7.0 | 0.01 | 0.01 | 0.01 | 86 | 1016.2 |
| 20260506150600 | 52 | 304 | 4.0 | 7.0 | 0.00 | 0.00 | 0.00 | 85 | 1016.1 |
| 20260506145601 | 52 | 307 | 6.0 | 12.0 | 0.00 | 0.00 | 0.00 | 85 | 1015.4 |
| 20260506145100 | 52 | 339 | 6.0 | 13.0 | 0.00 | 0.00 | 0.00 | 84 | 1015.3 |
| 20260506144600 | 52 | 16 | 5.0 | 15.0 | 0.00 | 0.00 | 0.00 | 86 | 1015.1 |
| 20260506144100 | 52 | 20 | 10.0 | 15.0 | 0.00 | 0.00 | 0.00 | 85 | 1014.3 |
| 20260506143601 | 52 | 327 | 8.0 | 12.0 | 0.00 | 0.00 | 0.00 | 86 | 1014.1 |
| 20260506143108 | 52 | 10 | 6.0 | 10.0 | 0.00 | 0.00 | 0.00 | 85 | 1014.4 |
| 20260506142602 | 53 | 338 | 5.0 | 10.0 | 0.00 | 0.00 | 0.00 | 84 | 1015.1 |
| 20260506142102 | 53 | 24 | 4.0 | 11.0 | 0.00 | 0.00 | 0.00 | 84 | 1015.1 |
| 20260506141601 | 52 | 333 | 7.0 | 11.0 | 0.00 | 0.00 | 0.00 | 84 | 1015.1 |
| 20260506141101 | 52 | 316 | 7.0 | 11.0 | 0.00 | 0.00 | 0.00 | 84 | 1015.1 |
| 20260506140600 | 52 | 331 | 7.0 | 13.0 | 0.00 | 0.00 | 0.00 | 84 | 1014.7 |
| 20260506135600 | 52 | 4 | 7.0 | 14.0 | 0.00 | 0.00 | 0.00 | 84 | 1015.0 |
| 20260506135101 | 52 | 330 | 9.0 | 14.0 | 0.00 | 0.00 | 0.00 | 83 | 1014.3 |
| 20260506134558 | 52 | 23 | 8.0 | 14.0 | 0.00 | 0.00 | 0.00 | 84 | 1014.0 |
| 20260506134100 | 52 | 344 | 9.0 | 14.0 | 0.00 | 0.00 | 0.00 | 84 | 1013.9 |
| 20260506133600 | 52 | 326 | 10.0 | 15.0 | 0.00 | 0.00 | 0.00 | 84 | 1013.8 |
| 20260506133102 | 52 | 319 | 9.0 | 15.0 | 0.00 | 0.00 | 0.00 | 83 | 1013.8 |
| 20260506132601 | 52 | 328 | 8.0 | 14.0 | 0.00 | 0.00 | 0.00 | 84 | 1013.9 |
| 20260506132103 | 52 | 342 | 6.0 | 13.0 | 0.00 | 0.00 | 0.00 | 84 | 1013.9 |
| 20260506131601 | 52 | 339 | 8.0 | 13.0 | 0.00 | 0.00 | 0.00 | 84 | 1013.9 |
| 20260506131100 | 52 | 359 | 8.0 | 13.0 | 0.00 | 0.00 | 0.00 | 84 | 1013.8 |
| 20260506130600 | 52 | 354 | 6.0 | 12.0 | 0.00 | 0.00 | 0.00 | 85 | 1013.5 |
| 20260506125600 | 52 | 351 | 7.0 | 17.0 | 0.00 | 0.00 | 0.00 | 85 | 1013.6 |
| 20260506125104 | 52 | 15 | 9.0 | 17.0 | 0.00 | 0.00 | 0.00 | 85 | 1013.3 |
| 20260506124559 | 52 | 321 | 7.0 | 14.0 | 0.00 | 0.00 | 0.00 | 85 | 1013.2 |
| 20260506124100 | 52 | 329 | 6.0 | 14.0 | 0.00 | 0.00 | 0.00 | 85 | 1013.2 |
| 20260506123600 | 51 | 330 | 8.0 | 14.0 | 0.00 | 0.00 | 0.00 | 85 | 1013.5 |
| 20260506123103 | 51 | 299 | 8.0 | 15.0 | 0.00 | 0.00 | 0.00 | 85 | 1013.2 |
| 20260506122600 | 51 | 328 | 8.0 | 16.0 | 0.00 | 0.00 | 0.00 | 85 | 1013.2 |
| 20260506122100 | 51 | 333 | 10.0 | 16.0 | 0.00 | 0.00 | 0.00 | 85 | 1013.2 |
| 20260506121600 | 51 | 4 | 8.0 | 17.0 | 0.00 | 0.00 | 0.00 | 85 | 1013.1 |
| 20260506121101 | 51 | 340 | 10.0 | 17.0 | 0.00 | 0.00 | 0.00 | 84 | 1013.0 |
| 20260506120601 | 51 | 350 | 10.0 | 15.0 | 0.00 | 0.00 | 0.00 | 84 | 1013.1 |
| 20260506120101 | 52 | 6 | 9.0 | 15.0 | 0.00 | 0.00 | 0.00 | 85 | 1013.0 |
| 20260506115601 | 52 | 283 | 10.0 | 14.0 | 0.00 | 0.00 | 0.00 | 84 | 1013.1 |
| 20260506115100 | 52 | 316 | 7.0 | 13.0 | 0.00 | 0.00 | 0.00 | 84 | 1013.0 |
| 20260506114606 | 52 | 309 | 7.0 | 16.0 | 0.00 | 0.00 | 0.00 | 84 | 1012.8 |
| 20260506114101 | 52 | 342 | 10.0 | 16.0 | 0.00 | 0.00 | 0.00 | 83 | 1012.9 |
| 20260506113600 | 52 | 325 | 9.0 | 16.0 | 0.00 | 0.00 | 0.00 | 83 | 1012.6 |
| 20260506113100 | 53 | 329 | 9.0 | 14.0 | 0.00 | 0.00 | 0.00 | 82 | 1012.6 |
| 20260506112600 | 53 | 335 | 8.0 | 16.0 | 0.00 | 0.00 | 0.00 | 82 | 1012.3 |
| 20260506112100 | 53 | 332 | 11.0 | 16.0 | 0.00 | 0.00 | 0.00 | 81 | 1012.3 |
| 20260506111559 | 53 | 338 | 10.0 | 20.0 | 0.00 | 0.00 | 0.00 | 80 | 1012.2 |
| 20260506111100 | 53 | 323 | 11.0 | 20.0 | 0.00 | 0.00 | 0.00 | 79 | 1012.2 |
| 20260506110601 | 54 | 327 | 9.0 | 17.0 | 0.00 | 0.00 | 0.00 | 78 | 1012.1 |
| 20260506110104 | 54 | 331 | 8.0 | 13.0 | 0.00 | 0.00 | 0.00 | 78 | 1012.0 |
| 20260506105601 | 54 | 335 | 7.0 | 12.0 | 0.00 | 0.00 | 0.00 | 78 | 1012.0 |
| 20260506105101 | 54 | 308 | 7.0 | 12.0 | 0.00 | 0.00 | 0.00 | 78 | 1011.8 |
| 20260506104600 | 54 | 338 | 8.0 | 14.0 | 0.00 | 0.00 | 0.00 | 77 | 1011.7 |
| 20260506104100 | 54 | 330 | 8.0 | 14.0 | 0.00 | 0.00 | 0.00 | 78 | 1011.8 |
| 20260506103600 | 55 | 327 | 9.0 | 14.0 | 0.00 | 0.00 | 0.00 | 77 | 1011.7 |
| 20260506103059 | 55 | 326 | 9.0 | 15.0 | 0.00 | 0.00 | 0.00 | 77 | 1011.6 |
| 20260506102601 | 55 | 4 | 8.0 | 15.0 | 0.00 | 0.00 | 0.00 | 77 | 1011.5 |
| 20260506102104 | 55 | 292 | 9.0 | 15.0 | 0.00 | 0.00 | 0.00 | 77 | 1011.5 |
| 20260506101606 | 55 | 338 | 8.0 | 14.0 | 0.00 | 0.00 | 0.00 | 78 | 1011.3 |
| 20260506101101 | 55 | 300 | 9.0 | 14.0 | 0.00 | 0.00 | 0.00 | 77 | 1011.2 |
| 20260506100601 | 55 | 328 | 6.0 | 14.0 | 0.00 | 0.00 | 0.00 | 78 | 1011.3 |
| 20260506095601 | 55 | 346 | 7.0 | 13.0 | 0.00 | 0.00 | 0.00 | 77 | 1011.1 |
| 20260506095100 | 55 | 316 | 7.0 | 14.0 | 0.00 | 0.00 | 0.00 | 77 | 1010.9 |
| 20260506094629 | 55 | 22 | 8.0 | 14.0 | 0.00 | 0.00 | 0.00 | 77 | 1010.9 |
| 20260506094100 | 55 | 11 | 5.0 | 13.0 | 0.00 | 0.00 | 0.00 | 77 | 1010.9 |
| 20260506093600 | 55 | 339 | 8.0 | 13.0 | 0.00 | 0.00 | 0.00 | 77 | 1010.9 |
| 20260506093108 | 55 | 340 | 7.0 | 10.0 | 0.00 | 0.00 | 0.00 | 77 | 1010.7 |
| 20260506092601 | 55 | 349 | 4.0 | 10.0 | 0.00 | 0.00 | 0.00 | 78 | 1010.7 |
| 20260506092101 | 55 | 336 | 4.0 | 12.0 | 0.00 | 0.00 | 0.00 | 78 | 1010.7 |
| 20260506091559 | 55 | 4 | 8.0 | 12.0 | 0.00 | 0.00 | 0.00 | 77 | 1010.6 |
| 20260506091101 | 56 | 319 | 8.0 | 12.0 | 0.00 | 0.00 | 0.00 | 77 | 1010.7 |
| 20260506090600 | 56 | 349 | 8.0 | 12.0 | 0.00 | 0.00 | 0.00 | 77 | 1010.5 |
| 20260506085600 | 56 | 332 | 5.0 | 9.0 | 0.00 | 0.00 | 0.00 | 78 | 1010.4 |
| 20260506085100 | 56 | 329 | 5.0 | 9.0 | 0.00 | 0.00 | 0.00 | 78 | 1010.5 |
| 20260506084603 | 56 | 349 | 5.0 | 10.0 | 0.00 | 0.00 | 0.00 | 78 | 1010.3 |
| 20260506084103 | 56 | 354 | 6.0 | 10.0 | 0.00 | 0.00 | 0.00 | 78 | 1010.3 |
| 20260506083600 | 56 | 1 | 7.0 | 10.0 | 0.00 | 0.00 | 0.00 | 78 | 1010.4 |
| 20260506083104 | 56 | 319 | 5.0 | 9.0 | 0.00 | 0.00 | 0.00 | 78 | 1010.4 |
| 20260506082604 | 56 | 347 | 5.0 | 11.0 | 0.00 | 0.00 | 0.00 | 78 | 1010.3 |
| 20260506082100 | 56 | 334 | 5.0 | 13.0 | 0.00 | 0.00 | 0.00 | 78 | 1010.6 |
| 20260506081601 | 56 | 328 | 8.0 | 13.0 | 0.00 | 0.00 | 0.00 | 78 | 1010.2 |
| 20260506081101 | 56 | 309 | 9.0 | 13.0 | 0.00 | 0.00 | 0.00 | 78 | 1010.2 |
| 20260506080603 | 56 | 338 | 8.0 | 11.0 | 0.00 | 0.00 | 0.00 | 78 | 1010.3 |
| 20260506073108 | 57 | 33 | 4.0 | 8.0 | 0.00 | 0.00 | 0.00 | 80 | 1009.9 |
| 20260506072600 | 57 | 26 | 4.0 | 9.0 | 0.00 | 0.00 | 0.00 | 81 | 1009.7 |
| 20260506072059 | 57 | 348 | 6.0 | 9.0 | 0.00 | 0.00 | 0.00 | 80 | 1009.7 |
| 20260506071600 | 57 | 22 | 4.0 | 12.0 | 0.00 | 0.00 | 0.00 | 81 | 1009.6 |
| 20260506071100 | 57 | 43 | 4.0 | 12.0 | 0.00 | 0.00 | 0.00 | 81 | 1009.7 |
| 20260506070600 | 57 | 312 | 7.0 | 11.0 | 0.00 | 0.00 | 0.00 | 81 | 1009.8 |
| 20260506070110 | 57 | 40 | 4.0 | 11.0 | 0.00 | 0.00 | 0.00 | 81 | 1009.8 |
| 20260506062100 | 57 | 342 | 8.0 | 13.0 | 0.00 | 0.00 | 0.00 | 81 | 1009.9 |
| 20260506061612 | 57 | 316 | 8.0 | 13.0 | 0.00 | 0.00 | 0.00 | 82 | 1010.0 |
| 20260506061101 | 57 | 329 | 6.0 | 12.0 | 0.00 | 0.00 | 0.00 | 82 | 1009.9 |
| 20260506060601 | 57 | 307 | 7.0 | 12.0 | 0.00 | 0.00 | 0.00 | 82 | 1010.0 |
| 20260506060105 | 57 | 1 | 7.0 | 14.0 | 0.00 | 0.00 | 0.00 | 82 | 1009.9 |
| 20260506051100 | 59 | 346 | 8.0 | 13.0 | 0.00 | 0.00 | 0.00 | 80 | 1010.1 |
| 20260506050600 | 59 | 307 | 5.0 | 15.0 | 0.00 | 0.00 | 0.00 | 80 | 1009.9 |
| 20260506045101 | 59 | 339 | 8.0 | 14.0 | 0.00 | 0.00 | 0.00 | 81 | 1009.9 |
| 20260506044601 | 59 | 340 | 8.0 | 13.0 | 0.00 | 0.00 | 0.00 | 81 | 1009.8 |
| 20260506044100 | 60 | 330 | 7.0 | 11.0 | 0.00 | 0.00 | 0.00 | 80 | 1009.8 |
| 20260506043600 | 60 | 352 | 7.0 | 12.0 | 0.00 | 0.00 | 0.00 | 81 | 1009.9 |
| 20260506043102 | 60 | 326 | 6.0 | 12.0 | 0.00 | 0.00 | 0.00 | 81 | 1010.0 |
| 20260506042601 | 60 | 323 | 6.0 | 12.0 | 0.00 | 0.00 | 0.00 | 80 | 1010.0 |
| 20260506042104 | 60 | 348 | 6.0 | 16.0 | 0.00 | 0.00 | 0.00 | 81 | 1009.8 |
| 20260506041604 | 60 | 18 | 10.0 | 16.0 | 0.00 | 0.00 | 0.00 | 80 | 1009.9 |
| 20260506041101 | 61 | 343 | 8.0 | 15.0 | 0.00 | 0.00 | 0.00 | 80 | 1009.8 |
| 20260506040600 | 61 | 357 | 8.0 | 18.0 | 0.00 | 0.00 | 0.00 | 80 | 1009.8 |
| 20260506040105 | 61 | 319 | 12.0 | 19.0 | 0.00 | 0.00 | 0.00 | 80 | 1009.7 |
| 20260506035602 | 61 | 307 | 9.0 | 19.0 | 0.00 | 0.00 | 0.00 | 80 | 1009.8 |
| 20260506035100 | 61 | 342 | 11.0 | 18.0 | 0.00 | 0.00 | 0.00 | 80 | 1009.6 |
| 20260506034611 | 61 | 325 | 12.0 | 16.0 | 0.00 | 0.00 | 0.00 | 80 | 1009.4 |
| 20260506034059 | 62 | 359 | 11.0 | 16.0 | 0.00 | 0.00 | 0.00 | 80 | 1009.4 |
| 20260506033559 | 62 | 338 | 10.0 | 16.0 | 0.00 | 0.00 | 0.00 | 80 | 1009.1 |
| 20260506033058 | 62 | 348 | 10.0 | 16.0 | 0.00 | 0.00 | 0.00 | 80 | 1009.2 |
| 20260506032559 | 62 | 23 | 9.0 | 15.0 | 0.00 | 0.00 | 0.00 | 80 | 1009.1 |
| 20260506032103 | 62 | 323 | 7.0 | 13.0 | 0.00 | 0.00 | 0.00 | 80 | 1008.9 |
| 20260506031606 | 62 | 34 | 7.0 | 14.0 | 0.00 | 0.00 | 0.00 | 80 | 1008.8 |
| 20260506031059 | 63 | 1 | 9.0 | 15.0 | 0.00 | 0.00 | 0.00 | 79 | 1008.7 |
| 20260506030600 | 63 | 359 | 8.0 | 15.0 | 0.00 | 0.00 | 0.00 | 79 | 1008.8 |
| 20260506030056 | 63 | 1 | 10.0 | 14.0 | 0.00 | 0.00 | 0.00 | 79 | 1008.9 |
| 20260506025559 | 63 | 327 | 8.0 | 17.0 | 0.00 | 0.00 | 0.00 | 79 | 1008.7 |
| 20260506025059 | 63 | 327 | 8.0 | 17.0 | 0.00 | 0.00 | 0.00 | 79 | 1008.6 |
| 20260506024557 | 64 | 310 | 11.0 | 17.0 | 0.00 | 0.00 | 0.00 | 78 | 1008.6 |
| 20260506024059 | 64 | 352 | 9.0 | 17.0 | 0.00 | 0.00 | 0.00 | 78 | 1008.5 |
| 20260506023600 | 64 | 318 | 8.0 | 17.0 | 0.00 | 0.00 | 0.00 | 78 | 1008.5 |
| 20260506023059 | 65 | 6 | 11.0 | 16.0 | 0.00 | 0.00 | 0.00 | 78 | 1008.3 |
| 20260506022559 | 65 | 327 | 9.0 | 16.0 | 0.00 | 0.00 | 0.00 | 77 | 1008.0 |
| 20260506022059 | 65 | 356 | 10.0 | 15.0 | 0.00 | 0.00 | 0.00 | 77 | 1008.0 |
| 20260506021600 | 66 | 329 | 8.0 | 17.0 | 0.00 | 0.00 | 0.00 | 77 | 1007.6 |
| 20260506021059 | 66 | 350 | 9.0 | 17.0 | 0.00 | 0.00 | 0.00 | 78 | 1007.4 |
| 20260506020558 | 66 | 279 | 6.0 | 12.0 | 0.00 | 0.00 | 0.00 | 78 | 1007.3 |
| 20260506015600 | 67 | 335 | 5.0 | 8.0 | 0.00 | 0.00 | 0.00 | 77 | 1006.9 |
| 20260506015100 | 67 | 359 | 5.0 | 11.0 | 0.00 | 0.00 | 0.00 | 76 | 1006.9 |
| 20260506014558 | 67 | 343 | 5.0 | 11.0 | 0.00 | 0.00 | 0.00 | 76 | 1007.2 |
| 20260506014101 | 67 | 321 | 6.0 | 11.0 | 0.00 | 0.00 | 0.00 | 76 | 1007.0 |
| 20260506013559 | 67 | 346 | 4.0 | 10.0 | 0.00 | 0.00 | 0.00 | 75 | 1006.9 |
| 20260506013057 | 67 | 319 | 5.0 | 10.0 | 0.00 | 0.00 | 0.00 | 75 | 1007.0 |
| 20260506012559 | 67 | 344 | 6.0 | 10.0 | 0.00 | 0.00 | 0.00 | 75 | 1006.6 |
| 20260506012058 | 67 | 342 | 4.0 | 11.0 | 0.00 | 0.00 | 0.00 | 75 | 1006.6 |
| 20260506011607 | 67 | 354 | 6.0 | 13.0 | 0.00 | 0.00 | 0.00 | 74 | 1006.6 |
| 20260506011059 | 67 | 329 | 8.0 | 15.0 | 0.00 | 0.00 | 0.00 | 74 | 1006.5 |
| 20260506010603 | 67 | 343 | 9.0 | 15.0 | 0.00 | 0.00 | 0.00 | 73 | 1006.2 |
| 20260506005600 | 68 | 324 | 8.0 | 19.0 | 0.00 | 0.00 | 0.00 | 73 | 1006.0 |
| 20260506005059 | 68 | 331 | 12.0 | 21.0 | 0.00 | 0.00 | 0.00 | 73 | 1005.8 |
| 20260506004602 | 69 | 340 | 12.0 | 21.0 | 0.00 | 0.00 | 0.00 | 73 | 1005.8 |
| 20260506004059 | 69 | 326 | 14.0 | 20.0 | 0.00 | 0.00 | 0.00 | 73 | 1005.6 |
| 20260506003601 | 70 | 352 | 7.0 | 14.0 | 0.00 | 0.00 | 0.00 | 73 | 1005.1 |
| 20260506003059 | 70 | 347 | 7.0 | 17.0 | 0.00 | 0.00 | 0.00 | 72 | 1005.2 |
| 20260506002601 | 70 | 313 | 9.0 | 19.0 | 0.00 | 0.00 | 0.00 | 72 | 1005.6 |
| 20260506002100 | 70 | 309 | 11.0 | 19.0 | 0.00 | 0.00 | 0.00 | 71 | 1005.1 |
| 20260506001600 | 71 | 319 | 12.0 | 19.0 | 0.00 | 0.00 | 0.00 | 72 | 1005.1 |